[[{"header":{"parameterUnit":"m.s-1","parameterCategory":1,"la1":30.2991,"la2":30.254,"lo1":-89.0895,"lo2":-89.0444,"dy":0.0017,"dx":0.0017,"nx":28,"ny":28,"refTime":"2025-07-13T03:00:00:Z","depth":0,"parameterNumber":2,"parameterNumberName":"U-component_of_WINDS"},"data":[0,0,0,0,0,0,0,0,0,0,0,0,0,0,0,0,0,0,0,0,0,0,0,0,0,0,0,0,0,0,0,0,0,0,0,0,0,0,0,0,0,0,0,0,0,0,0,0,0,0,0,0,0,0,0,0,0,0,1.2681,1.2682,0,1.2746,1.2746,1.2747,1.2767,1.2767,1.2767,1.2766,1.2835,1.2837,1.2839,0,0,0,0,0,0,0,0,0,0,0,0,0,1.2578,1.258,1.2681,1.2682,1.2683,1.2746,1.2746,1.2747,1.2767,1.2767,1.2767,1.2766,1.2834,1.2837,1.2839,0,0,0,0,0,0,0,0,0,0,0,0,0,1.2631,1.258,1.2681,1.27,1.2703,1.2745,1.2746,1.2748,1.2768,1.2767,1.2767,1.2766,1.2833,1.2836,1.284,1.2868,0,0,1.2849,1.2851,0,0,0,0,0,0,0,0,1.2628,1.2635,1.2697,1.2699,1.2702,1.2748,1.2735,1.2788,1.2768,1.2743,1.2766,1.2766,1.2807,1.2812,1.2825,1.2872,1.2875,1.285,1.2851,1.2853,1.2854,0,0,0,0,0,0,0,1.2624,1.2632,1.2707,1.2698,1.2701,1.2707,1.2714,1.2745,1.2777,1.2745,1.2747,1.2754,1.2808,1.2822,1.2827,1.2876,1.2849,1.2852,1.2854,1.2855,1.295,1.2951,0,0,0,0,0,0,1.2617,1.2629,1.2705,1.2709,1.2663,1.2709,1.2717,1.2734,1.2776,1.2782,1.2754,1.2755,1.2817,1.2823,1.2829,1.2866,1.2853,1.2856,1.2858,1.295,1.295,1.2951,0,0,0,0,0,0,1.2614,1.2623,1.2702,1.2669,1.268,1.2711,1.273,1.2735,1.2749,1.2783,1.2789,1.2763,1.2817,1.2825,1.2859,1.2869,1.2857,1.286,1.2949,1.295,1.2951,1.294,0,0,0,0,0,0,1.2611,1.2622,1.2633,1.2669,1.2681,1.2729,1.2731,1.2737,1.2754,1.2755,1.2793,1.2799,1.2817,1.2854,1.2862,1.2873,1.2863,1.2948,1.2949,1.295,1.294,1.2941,1.2942,0,0,0,0,0,1.2608,1.2628,1.2633,1.2642,1.2695,1.273,1.2737,1.2757,1.2755,1.2767,1.2789,1.2797,1.2867,1.2857,1.2866,1.2879,1.2948,1.2949,1.295,1.294,1.2941,1.2942,0,0,0,0,0,0,1.2593,1.2633,1.2639,1.2672,1.2697,1.2733,1.2748,1.2757,1.2784,1.2784,1.2809,1.2817,1.2849,1.2868,1.2856,1.291,1.2908,1.2911,1.2896,1.2898,1.2898,1.2893,1.2865,0,0,0,0,0,1.2593,1.2617,1.2651,1.2677,1.2689,1.2716,1.2732,1.2746,1.2773,1.2784,1.2809,1.2836,1.2864,1.2882,1.2909,1.2943,1.2952,1.2956,1.2957,1.2957,1.296,1.298,1.2982,1.2956,1.2956,1.2956,0,0,1.2594,1.2619,1.2633,1.2674,1.2695,1.2721,1.2725,1.2752,1.2771,1.2789,1.2822,1.2841,1.2873,1.2907,1.2923,1.2923,1.2969,1.2959,1.2959,1.2962,1.2981,1.2984,1.2986,1.2957,1.2956,1.2956,0,0,1.2609,1.263,1.2653,1.2675,1.2707,1.2725,1.273,1.2765,1.2778,1.2812,1.2826,1.285,1.2897,1.292,1.2937,1.2962,1.2971,1.297,1.2974,1.2993,1.2996,1.2998,1.3007,1.3009,1.2973,1.2973,1.2973,0,1.2606,1.2644,1.2664,1.269,1.2709,1.2725,1.275,1.277,1.2809,1.2822,1.2821,1.2882,1.2904,1.2944,1.295,1.2964,1.2971,1.2966,1.2993,1.2996,1.2998,1.3007,1.301,1.2972,1.2972,1.2972,1.2972,0,1.264,1.2666,1.2681,1.2718,1.2738,1.2763,1.2789,1.2807,1.2818,1.2837,1.2872,1.29,1.2933,1.2944,1.2956,1.2986,1.2985,1.2988,1.2987,1.3,1.3008,1.3012,1.2972,1.2972,1.2972,1.2972,0,0,1.2646,1.2695,1.27,1.2717,1.2754,1.2775,1.2802,1.2834,1.2849,1.2877,1.29,1.294,1.2944,1.2964,1.2979,1.2995,1.3013,1.2997,1.2998,1.2999,1.3048,1.3045,1.3049,1.302,1.3021,1.3021,1.3046,0,1.2666,1.2712,1.2732,1.277,1.2795,1.2812,1.2835,1.2861,1.2879,1.2904,1.2924,1.2952,1.2955,1.2967,1.2985,1.3007,1.3024,1.3006,1.3043,1.3044,1.3034,1.3053,1.305,1.3072,1.3049,1.305,1.305,0,1.2695,1.2721,1.2762,1.2796,1.2807,1.2828,1.2859,1.2882,1.2912,1.2925,1.2947,1.2961,1.2991,1.2988,1.3029,1.3016,1.3033,1.3046,1.3048,1.3052,1.3047,1.3058,1.3079,1.3082,1.3056,1.3055,1.3055,0,1.2695,1.2742,1.2772,1.2786,1.2827,1.2841,1.2859,1.2888,1.2907,1.2935,1.2948,1.2979,1.2996,1.3021,1.3043,1.3039,1.3083,1.3081,1.3094,1.3094,1.3103,1.3102,1.3127,1.3113,1.3113,1.3113,1.3113,0,1.2715,1.2739,1.2773,1.2791,1.2819,1.2842,1.287,1.2889,1.2915,1.2938,1.2955,1.2977,1.3005,1.3031,1.3049,1.3081,1.3089,1.31,1.3105,1.3099,1.3097,1.3109,1.3109,1.3114,1.3114,1.3114,1.3114,0,1.2721,1.2744,1.2778,1.2814,1.2824,1.2843,1.2874,1.2893,1.2913,1.2942,1.295,1.2981,1.3012,1.3037,1.3078,1.3091,1.3124,1.3129,1.3114,1.3116,1.3128,1.3126,1.3161,1.3167,1.315,1.315,1.315,0,1.2732,1.2751,1.2789,1.2805,1.2822,1.2849,1.2868,1.2892,1.2911,1.2947,1.2962,1.2994,1.3021,1.3071,1.3097,1.3129,1.3135,1.3145,1.314,1.3133,1.3135,1.3134,1.3136,1.3145,1.3145,1.3146,1.3146,0,1.2749,1.276,1.2786,1.2816,1.2838,1.2863,1.2889,1.2902,1.2931,1.2952,1.2983,1.3004,1.3046,1.3078,1.3113,1.3132,1.3144,1.3147,1.3152,1.3146,1.3136,1.3141,1.3115,1.3146,1.3146,1.3146,1.3146,1.3146,1.2758,1.2775,1.2805,1.2834,1.2855,1.2879,1.2899,1.2921,1.2948,1.2983,1.2996,1.3029,1.3059,1.3107,1.3127,1.3153,1.3154,1.3161,1.3163,1.3164,1.3163,1.3132,1.316,1.316,1.316,1.316,1.316,0,1.2776,1.2795,1.2822,1.2857,1.288,1.2888,1.2918,1.2937,1.2965,1.2992,1.3018,1.3055,1.3087,1.3116,1.3149,1.3165,1.3171,1.3173,1.3172,1.3176,1.316,1.3153,1.3167,1.3167,1.3167,1.3167,1.3167,1.3167,1.2788,1.2818,1.2832,1.2875,1.2895,1.2926,1.2942,1.2965,1.2987,1.3027,1.3053,1.3071,1.31,1.3135,1.3165,1.3173,1.3184,1.3184,1.3194,1.3178,1.3177,1.3176,1.3169,1.3187,1.3187,1.3207,1.3207,1.3207]},{"header":{"parameterUnit":"m.s-1","parameterCategory":1,"la1":30.2991,"la2":30.254,"lo1":-89.0895,"lo2":-89.0444,"dy":0.0017,"dx":0.0017,"nx":28,"ny":28,"refTime":"2025-07-13T03:00:00:Z","depth":0,"parameterNumber":3,"parameterNumberName":"V-component_of_WINDS"},"data":[0,0,0,0,0,0,0,0,0,0,0,0,0,0,0,0,0,0,0,0,0,0,0,0,0,0,0,0,0,0,0,0,0,0,0,0,0,0,0,0,0,0,0,0,0,0,0,0,0,0,0,0,0,0,0,0,0,0,-0.1186,-0.1187,0,-0.1259,-0.1259,-0.126,-0.1294,-0.1293,-0.1293,-0.1293,-0.1369,-0.1371,-0.1374,0,0,0,0,0,0,0,0,0,0,0,0,0,-0.108,-0.1082,-0.1186,-0.1187,-0.1188,-0.1258,-0.1259,-0.126,-0.1294,-0.1293,-0.1293,-0.1293,-0.1369,-0.1371,-0.1374,0,0,0,0,0,0,0,0,0,0,0,0,0,-0.1137,-0.1082,-0.1186,-0.1213,-0.1216,-0.1258,-0.126,-0.1261,-0.1294,-0.1293,-0.1293,-0.1293,-0.1368,-0.1371,-0.1374,-0.1395,0,0,-0.1384,-0.1385,0,0,0,0,0,0,0,0,-0.1133,-0.114,-0.1208,-0.1211,-0.1215,-0.1267,-0.125,-0.1306,-0.1294,-0.1264,-0.1293,-0.1293,-0.1336,-0.1341,-0.1355,-0.1399,-0.1402,-0.1384,-0.1386,-0.1387,-0.1388,0,0,0,0,0,0,0,-0.1129,-0.1138,-0.1215,-0.1209,-0.1213,-0.1223,-0.123,-0.1261,-0.13,-0.1267,-0.1269,-0.1277,-0.1337,-0.1352,-0.1357,-0.1403,-0.1384,-0.1387,-0.1389,-0.139,-0.147,-0.147,0,0,0,0,0,0,-0.1121,-0.1134,-0.1213,-0.1217,-0.1173,-0.1224,-0.1233,-0.125,-0.1299,-0.1307,-0.1277,-0.1279,-0.1347,-0.1354,-0.136,-0.1389,-0.1387,-0.139,-0.1392,-0.147,-0.147,-0.147,0,0,0,0,0,0,-0.1118,-0.1127,-0.121,-0.1176,-0.1188,-0.1226,-0.1245,-0.1252,-0.1267,-0.1307,-0.1315,-0.1285,-0.1347,-0.1356,-0.1387,-0.1392,-0.1391,-0.1394,-0.1469,-0.147,-0.147,-0.1447,0,0,0,0,0,0,-0.1115,-0.1126,-0.1134,-0.1176,-0.1189,-0.1234,-0.1246,-0.1253,-0.1272,-0.1274,-0.1317,-0.1324,-0.1348,-0.1382,-0.139,-0.1397,-0.1397,-0.1469,-0.1469,-0.147,-0.1447,-0.1446,-0.1446,0,0,0,0,0,-0.1111,-0.1125,-0.1134,-0.1144,-0.12,-0.1234,-0.1242,-0.1269,-0.1272,-0.1281,-0.1307,-0.1322,-0.139,-0.1385,-0.1394,-0.1402,-0.1469,-0.1469,-0.147,-0.1448,-0.1447,-0.1446,0,0,0,0,0,0,-0.1083,-0.1131,-0.1142,-0.1169,-0.1197,-0.124,-0.1252,-0.1266,-0.1295,-0.1296,-0.1329,-0.1338,-0.1366,-0.1387,-0.138,-0.1426,-0.1431,-0.1433,-0.1411,-0.141,-0.1409,-0.1404,-0.1399,0,0,0,0,0,-0.108,-0.1103,-0.1144,-0.1165,-0.1178,-0.1212,-0.1229,-0.1247,-0.1277,-0.129,-0.1318,-0.1348,-0.1377,-0.1395,-0.1423,-0.145,-0.1461,-0.1461,-0.146,-0.1459,-0.1461,-0.1478,-0.1479,-0.1472,-0.1472,-0.1472,0,0,-0.1074,-0.1103,-0.1116,-0.116,-0.1184,-0.1208,-0.1222,-0.1247,-0.1266,-0.1294,-0.1325,-0.1347,-0.1383,-0.1412,-0.1427,-0.1431,-0.1465,-0.146,-0.1458,-0.1461,-0.1479,-0.1479,-0.148,-0.1472,-0.1472,-0.1472,0,0,-0.1075,-0.1099,-0.1119,-0.1143,-0.1179,-0.1202,-0.1207,-0.1247,-0.1263,-0.1294,-0.1316,-0.1339,-0.1387,-0.1412,-0.143,-0.1442,-0.1458,-0.1451,-0.1446,-0.1463,-0.1464,-0.1464,-0.1469,-0.1471,-0.1452,-0.1452,-0.1452,0,-0.1063,-0.11,-0.1128,-0.1152,-0.1171,-0.1197,-0.1218,-0.124,-0.1284,-0.1297,-0.13,-0.1361,-0.1387,-0.1424,-0.1427,-0.1441,-0.1448,-0.1446,-0.1461,-0.1462,-0.1463,-0.1468,-0.147,-0.1451,-0.1451,-0.1452,-0.1452,0,-0.1084,-0.111,-0.1122,-0.1163,-0.1184,-0.1206,-0.1238,-0.1256,-0.1273,-0.1295,-0.1328,-0.136,-0.1395,-0.1405,-0.1422,-0.1444,-0.1446,-0.1455,-0.1461,-0.1462,-0.1468,-0.147,-0.145,-0.145,-0.1451,-0.1451,0,0,-0.107,-0.1126,-0.113,-0.115,-0.1192,-0.1212,-0.1237,-0.1271,-0.1286,-0.1315,-0.1337,-0.1377,-0.1386,-0.1408,-0.1427,-0.1442,-0.145,-0.1449,-0.1451,-0.1449,-0.1478,-0.1472,-0.1473,-0.1461,-0.1461,-0.1462,-0.1476,0,-0.1078,-0.1122,-0.1148,-0.1181,-0.1206,-0.1231,-0.1253,-0.1281,-0.1303,-0.1328,-0.1353,-0.1381,-0.139,-0.1404,-0.1419,-0.1446,-0.1457,-0.1445,-0.1483,-0.1484,-0.1473,-0.1476,-0.1469,-0.1481,-0.1478,-0.1478,-0.1479,0,-0.1093,-0.1121,-0.1157,-0.1197,-0.1208,-0.1227,-0.1261,-0.1284,-0.1318,-0.1333,-0.1357,-0.1377,-0.1405,-0.1408,-0.1448,-0.1439,-0.1456,-0.1472,-0.1473,-0.1478,-0.1481,-0.1482,-0.1485,-0.1487,-0.1482,-0.1482,-0.1482,0,-0.1079,-0.1127,-0.1155,-0.117,-0.1218,-0.123,-0.1251,-0.1284,-0.1303,-0.1333,-0.1346,-0.1379,-0.1398,-0.1423,-0.1452,-0.1452,-0.1489,-0.1495,-0.1504,-0.1503,-0.151,-0.151,-0.1517,-0.152,-0.152,-0.152,-0.152,0,-0.1086,-0.1107,-0.1149,-0.1167,-0.1192,-0.1222,-0.1246,-0.1269,-0.1298,-0.1321,-0.1345,-0.1366,-0.1403,-0.1429,-0.1451,-0.1481,-0.1489,-0.1503,-0.1509,-0.1501,-0.1499,-0.1513,-0.1513,-0.1521,-0.1521,-0.1521,-0.152,0,-0.1075,-0.1104,-0.1136,-0.1179,-0.119,-0.1206,-0.1243,-0.1261,-0.1285,-0.1313,-0.1322,-0.1359,-0.1391,-0.1422,-0.1465,-0.1481,-0.1511,-0.1518,-0.1499,-0.1502,-0.1509,-0.1508,-0.1526,-0.153,-0.153,-0.153,-0.153,0,-0.1077,-0.1094,-0.1138,-0.1155,-0.1175,-0.1201,-0.1221,-0.1252,-0.1272,-0.1312,-0.1325,-0.1359,-0.1387,-0.1437,-0.1469,-0.1502,-0.1511,-0.1515,-0.1516,-0.1508,-0.1512,-0.1511,-0.1513,-0.1514,-0.1514,-0.1514,-0.1514,0,-0.1079,-0.1092,-0.1119,-0.1152,-0.1175,-0.1202,-0.123,-0.1243,-0.1279,-0.1301,-0.1333,-0.1355,-0.1399,-0.1433,-0.147,-0.1492,-0.1509,-0.1513,-0.1517,-0.1509,-0.1498,-0.1505,-0.1497,-0.1513,-0.1513,-0.1513,-0.1513,-0.1513,-0.1075,-0.1092,-0.1125,-0.1155,-0.1179,-0.1205,-0.1225,-0.1251,-0.1278,-0.1316,-0.1333,-0.1366,-0.14,-0.1452,-0.1474,-0.1501,-0.1505,-0.1511,-0.1512,-0.1513,-0.1512,-0.1493,-0.1508,-0.1508,-0.1508,-0.1508,-0.1508,0,-0.1078,-0.1101,-0.1128,-0.1167,-0.1191,-0.1204,-0.1236,-0.1256,-0.1284,-0.1314,-0.1342,-0.138,-0.1413,-0.1447,-0.1482,-0.1497,-0.1506,-0.1505,-0.1505,-0.151,-0.1505,-0.1499,-0.1498,-0.1498,-0.1498,-0.1498,-0.1498,-0.1498,-0.1083,-0.1111,-0.1129,-0.1171,-0.1194,-0.1226,-0.1244,-0.1268,-0.1293,-0.1334,-0.1361,-0.1383,-0.1415,-0.1453,-0.1484,-0.1493,-0.1505,-0.1502,-0.1514,-0.1509,-0.151,-0.1511,-0.1505,-0.1505,-0.1505,-0.1516,-0.1516,-0.1516]}]]